This is the latest recevied weather packets stored in our database for station/object LRTR. If no packets are shown the sender has not sent any weather packets the latest 10 day(s).
| Time | Temp. | Humidity | Pressure | Rain* | Wind** | Luminosity | Snow |
|---|---|---|---|---|---|---|---|
| 1777429985 | 7.22° C | 76% | 1018 hPa | - | - | - | - |
| 1777429085 | 7.22° C | 76% | 1018 hPa | - | - | - | - |
| 1777428185 | 7.22° C | 76% | 1018 hPa | - | - | - | - |
| 1777427285 | 7.22° C | 76% | 1018 hPa | - | - | - | - |
| 1777426385 | 7.22° C | 76% | 1018 hPa | - | - | - | - |
| 1777425485 | 7.78° C | 66% | 1018 hPa | - | - | - | - |
| 1777424585 | 7.78° C | 66% | 1018 hPa | - | - | - | - |
| 1777423685 | 8.89° C | 62% | 1018 hPa | - | - | - | - |
| 1777422785 | 8.89° C | 62% | 1018 hPa | - | - | - | - |
| 1777420985 | 10° C | 58% | 1018 hPa | - | - | - | - |
| 1777420085 | 7.78° C | 76% | 1018 hPa | - | - | - | - |
| 1777419184 | 7.78° C | 76% | 1018 hPa | - | - | - | - |
| 1777418285 | 7.22° C | 81% | 1018 hPa | - | - | - | - |
| 1777417385 | 7.22° C | 81% | 1018 hPa | - | - | - | - |
| 1777416486 | 8.89° C | 58% | 1018 hPa | - | - | - | - |
| 1777415585 | 8.89° C | 58% | 1018 hPa | - | - | - | - |
| 1777414685 | 7.78° C | 66% | 1018 hPa | - | - | - | - |
| 1777413785 | 7.78° C | 66% | 1018 hPa | - | - | - | - |
| 1777412885 | 7.22° C | 71% | 1018 hPa | - | - | - | - |
| 1777411985 | 7.22° C | 71% | 1018 hPa | - | - | - | - |
| 1777411085 | 7.22° C | 76% | 1018 hPa | - | - | - | - |
| 1777410185 | 7.22° C | 76% | 1018 hPa | - | - | - | - |
| 1777409325 | 7.78° C | 71% | 1018 hPa | - | - | - | - |
| 1777408385 | 7.78° C | 71% | 1018 hPa | - | - | - | - |
| 1777407485 | 8.89° C | 71% | 1018 hPa | - | - | - | - |
* Rain since midnight (hover to see other rain measurements)
** Current wind speed in m/s (hover to see current wind gust speed)